User: anonymous   Login
Location: Unspecified
(0.0000°N, 0.0000°E)
Time: 22:53:29
(UTC+00:00)
Language:

Feng Yun 1-B - Orbit

View from above orbital plane
View from above orbital plane
View from above satellite
View from above satellite

Ground track
Ground track

The orbit data is extracted from the following two-line orbital elements,

1 20788U 90081A   18113.59640443 -.00000247 +00000-0 -13245-3 0  9995
2 20788 098.8205 136.2908 0016138 000.4549 359.6630 14.02671777414215
Epoch (UTC): 23 April 2018 14:18:49
Eccentricity: 0.0016138
inclination: 98.8205°
perigee height: 873 km
apogee height: 896 km
right ascension of ascending node: 136.2908°
argument of perigee: 0.4549°
revolutions per day: 14.02671777
mean anomaly at epoch: 359.6630°
orbit number at epoch: 41421

The dashed part of the orbit path shows where the satellite is in the earth's shadow,  

DLR